M/V Jesse B Gunstream Jr — WDB6583 — position and weather

sailwx.info

Track history (hours):
 
Tides and Currents Weather Stations Pressure Air Temp Water Temp Dewpoint Dewpoint Depression Visibility Wind Speed Wind Dir Waves Ship Positions

M/V Jesse B Gunstream Jr

Owner: Higman Barge Lines, Inc., ORANGE, TX. More information available from US FCC via Universal Licensing System and Coast Guard Vessel Documentation Center.

Last reported at 2017-Sep-23 23:30 UTC. Time now 2017-Sep-23 23:46 UTC.
Position N 30°04' W 093°22'.

; draft 3.2 m.

Type: Ship (hazmat cat A). MMSI: 366926990.

Date/timePositionNaut miles runAvg speedWind from/ knotsBaromVisibWave heightAir tempDewpointWater temp
2017-Sep-23 23:30N 30°04' W 093°22'0 0.0
2017-Sep-23 23:00N 30°04' W 093°22'0 0.0
2017-Sep-23 22:30N 30°04' W 093°22'1 1.5
2017-Sep-23 22:00N 30°04' W 093°21'2 3.1
2017-Sep-23 21:30N 30°05' W 093°20'2 3.6
2017-Sep-23 21:01N 30°06' W 093°18'1 2.9
2017-Sep-23 20:30N 30°05' W 093°17'0 0.1
2017-Sep-23 20:00N 30°05' W 093°17'7 0.2
2017-Sep-22 02:00N 30°04' W 093°24'4 7.4
2017-Sep-22 01:30N 30°04' W 093°28'4 7.4
2017-Sep-22 01:01N 30°04' W 093°33'4 7.1
2017-Sep-22 00:28N 30°04' W 093°37'74 4.3
2017-Sep-21 07:29N 29°33' W 094°55'4 8.7
2017-Sep-21 07:00N 29°36' W 094°57'4 8.9
2017-Sep-21 06:30N 29°41' W 094°59'4 7.7
2017-Sep-21 05:59N 29°44' W 095°02'2 0.4
2017-Sep-21 01:46N 29°42' W 095°01'7 8.5
2017-Sep-21 00:58N 29°36' W 094°57'4 9.1
2017-Sep-21 00:30N 29°33' W 094°54'75 4.2
2017-Sep-20 06:28N 30°04' W 093°35'2 4.2
2017-Sep-20 05:58N 30°04' W 093°33'2 4.5
2017-Sep-20 05:30N 30°04' W 093°30'3 5.4
2017-Sep-20 05:00N 30°04' W 093°27'3 5.9
2017-Sep-20 04:30N 30°04' W 093°24'3 5.9
2017-Sep-20 04:00N 30°04' W 093°20'1 1.4
2017-Sep-20 03:31N 30°05' W 093°20'1 2.6
2017-Sep-20 03:01N 30°06' W 093°20'2 3.9
2017-Sep-20 02:31N 30°08' W 093°19'0 0.0
2017-Sep-20 02:01N 30°08' W 093°19'0 0.2
2017-Sep-20 01:30N 30°08' W 093°19'0 0.1
2017-Sep-20 01:00N 30°08' W 093°19'0 0.0
2017-Sep-20 00:31N 30°08' W 093°19'0 0.0
2017-Sep-20 00:00N 30°08' W 093°19'0 0.0
2017-Sep-19 23:31N 30°08' W 093°19'1 2.8
2017-Sep-19 23:00N 30°07' W 093°20'2 4.2
2017-Sep-19 22:31N 30°05' W 093°20'0 0.0
2017-Sep-19 22:00N 30°05' W 093°20'0 0.0
2017-Sep-19 21:30N 30°05' W 093°20'0 0.0
2017-Sep-19 21:01N 30°05' W 093°20'0 0.5
2017-Sep-19 20:30N 30°05' W 093°20'1 1.6
2017-Sep-19 20:00N 30°04' W 093°20'1 2.5
2017-Sep-19 19:30N 30°04' W 093°22'2 3.0
2017-Sep-19 19:00N 30°04' W 093°23'3 7.0
2017-Sep-19 18:30N 30°04' W 093°27'4 8.1
2017-Sep-19 18:00N 30°04' W 093°32'4 7.8
2017-Sep-19 17:31N 30°04' W 093°36'74 3.1
2017-Sep-18 17:36N 29°33' W 094°54'1 7.0
2017-Sep-18 17:30N 29°33' W 094°55'4 7.1
2017-Sep-18 17:01N 29°36' W 094°57'4 7.4
2017-Sep-18 16:31N 29°40' W 094°58'3 6.9
2017-Sep-18 16:00N 29°42' W 095°01'  
Track history (hours):
 
Tides and Currents Weather Stations Pressure Air Temp Water Temp Dewpoint Dewpoint Depression Visibility Wind Speed Wind Dir Waves Ship Positions

M/V Jesse B Gunstream Jr

Owner: Higman Barge Lines, Inc., ORANGE, TX. More information available from US FCC via Universal Licensing System and Coast Guard Vessel Documentation Center.

Last reported at 2017-Sep-23 23:30 UTC. Time now 2017-Sep-23 23:46 UTC.
Position N 30°04' W 093°22'.

; draft 3.2 m.

Type: Ship (hazmat cat A). MMSI: 366926990.

Date/timePositionNaut miles runAvg speedWind from/ knotsBaromVisibWave heightAir tempDewpointWater temp
2017-Sep-23 23:30N 30°04' W 093°22'0 0.0
2017-Sep-23 23:00N 30°04' W 093°22'0 0.0
2017-Sep-23 22:30N 30°04' W 093°22'1 1.5
2017-Sep-23 22:00N 30°04' W 093°21'2 3.1
2017-Sep-23 21:30N 30°05' W 093°20'2 3.6
2017-Sep-23 21:01N 30°06' W 093°18'1 2.9
2017-Sep-23 20:30N 30°05' W 093°17'0 0.1
2017-Sep-23 20:00N 30°05' W 093°17'7 0.2
2017-Sep-22 02:00N 30°04' W 093°24'4 7.4
2017-Sep-22 01:30N 30°04' W 093°28'4 7.4
2017-Sep-22 01:01N 30°04' W 093°33'4 7.1
2017-Sep-22 00:28N 30°04' W 093°37'74 4.3
2017-Sep-21 07:29N 29°33' W 094°55'4 8.7
2017-Sep-21 07:00N 29°36' W 094°57'4 8.9
2017-Sep-21 06:30N 29°41' W 094°59'4 7.7
2017-Sep-21 05:59N 29°44' W 095°02'2 0.4
2017-Sep-21 01:46N 29°42' W 095°01'7 8.5
2017-Sep-21 00:58N 29°36' W 094°57'4 9.1
2017-Sep-21 00:30N 29°33' W 094°54'75 4.2
2017-Sep-20 06:28N 30°04' W 093°35'2 4.2
2017-Sep-20 05:58N 30°04' W 093°33'2 4.5
2017-Sep-20 05:30N 30°04' W 093°30'3 5.4
2017-Sep-20 05:00N 30°04' W 093°27'3 5.9
2017-Sep-20 04:30N 30°04' W 093°24'3 5.9
2017-Sep-20 04:00N 30°04' W 093°20'1 1.4
2017-Sep-20 03:31N 30°05' W 093°20'1 2.6
2017-Sep-20 03:01N 30°06' W 093°20'2 3.9
2017-Sep-20 02:31N 30°08' W 093°19'0 0.0
2017-Sep-20 02:01N 30°08' W 093°19'0 0.2
2017-Sep-20 01:30N 30°08' W 093°19'0 0.1
2017-Sep-20 01:00N 30°08' W 093°19'0 0.0
2017-Sep-20 00:31N 30°08' W 093°19'0 0.0
2017-Sep-20 00:00N 30°08' W 093°19'0 0.0
2017-Sep-19 23:31N 30°08' W 093°19'1 2.8
2017-Sep-19 23:00N 30°07' W 093°20'2 4.2
2017-Sep-19 22:31N 30°05' W 093°20'0 0.0
2017-Sep-19 22:00N 30°05' W 093°20'0 0.0
2017-Sep-19 21:30N 30°05' W 093°20'0 0.0
2017-Sep-19 21:01N 30°05' W 093°20'0 0.5
2017-Sep-19 20:30N 30°05' W 093°20'1 1.6
2017-Sep-19 20:00N 30°04' W 093°20'1 2.5
2017-Sep-19 19:30N 30°04' W 093°22'2 3.0
2017-Sep-19 19:00N 30°04' W 093°23'3 7.0
2017-Sep-19 18:30N 30°04' W 093°27'4 8.1
2017-Sep-19 18:00N 30°04' W 093°32'4 7.8
2017-Sep-19 17:31N 30°04' W 093°36'74 3.1
2017-Sep-18 17:36N 29°33' W 094°54'1 7.0
2017-Sep-18 17:30N 29°33' W 094°55'4 7.1
2017-Sep-18 17:01N 29°36' W 094°57'4 7.4
2017-Sep-18 16:31N 29°40' W 094°58'3 6.9
2017-Sep-18 16:00N 29°42' W 095°01'  

Dump ship's entire track history